Location: Newark
(39.0622°N, 106.5590°E)
Time: 20:14:19
(UTC+00:00)

Courier 1B - Pass Details

Date: 27 January 2020
Orbit: 962 x 1209 km, 28.3° (Epoch: 22 February)

Event Time Altitude Azimuth Distance (km) Brightness Sun altitude
Rises 17:32:00 0° 215° (SW) 3,717 - -68.7°
Reaches altitude 10° 17:35:31 10° 198° (SSW) 2,810 - -68.5°
Maximum altitude 17:39:59 18° 156° (SSE) 2,307 - -68.2°
Drops below altitude 10° 17:44:38 10° 116° (ESE) 2,934 - -67.8°
Sets 17:48:24 0° 99° (E) 3,944 - -67.5°
